Home > Time Zones > World Clock > Weather > India > Dausa > Past weeks

Flag for India Weather past 2 weeks in Dausa, Rajasthan, India

Now
79 °F

Fog.


Feels Like: 83 °F
Forecast: 80 / 94 °F
Wind: No wind

Location: Jaipur / Sanganer

Current Time: Jul 28, 2014 at 10:47:11 PM

Latest Report: Jul 28, 2014 at 10:00 PM


Visibility: 2 mi

Pressure: 29.59 "Hg

Humidity: 94%

Dew point: 77 °F

Location of DausaLocation

Historic Weather in Dausa — Graph

°F

Dausa temperature yesterday

Maximum temperature yesterday: 90 °F (at 12:00 PM)
Minimum temperature yesterday: 79 °F (at 4:00 AM)
Average temperature yesterday: 84 °F

Past Weeks' High & Low Weather Summary

 TemperatureHumidityPressure
High97 °F (Jul 14, 3:00 PM)100% (Jul 17, 3:00 AM)29.74 "Hg (Jul 17, 3:00 AM)
Low75 °F (Jul 21, 1:00 AM)49% (Jul 14, 11:00 AM)29.42 "Hg (Jul 15, 6:00 PM)
Average86 °F72%29.56 "Hg
* Reported Jul 13 9:00 PM — Jul 28 9:00 PM, Dausa, Weather by CustomWeather, © 2014

Note: Actual official high and low records may vary slightly from our data, if they occured in-between our weather recording intervals... More about our weather records

Advertising

Dausa weather history for previous 24 hours

 ConditionsComfort  
Time TempWeatherWind HumidityBarometerVisibility
9:00 PM
Jul 28
77 °FFog.1 mph100%29.56 "Hg1 mi
8:00 PM77 °FFog.6 mph94%29.59 "Hg1 mi
7:00 PM79 °FRain. More clouds than sun.No wind94%29.59 "Hg1 mi
6:00 PM79 °FThunderstorms. More clouds than sun.5 mph94%29.53 "Hg1 mi
5:30 PM79 °FThunderstorms. More clouds than sun.1 mph94%29.53 "Hg1 mi
5:00 PM79 °FThunderstorms. More clouds than sun.7 mph94%29.53 "Hg1 mi
4:00 PM79 °FThunderstorms. Broken clouds.2 mph89%29.56 "Hg2 mi
2:00 PM82 °FFog.14 mph84%29.59 "Hg2 mi
1:00 PM84 °FFog.12 mph79%29.59 "Hg2 mi
12:00 PM84 °FFog.7 mph79%29.62 "Hg2 mi
10:00 AM81 °FRain. Broken clouds.10 mph89%29.65 "Hg1 mi
9:00 AM81 °FFog.8 mph84%29.65 "Hg2 mi
8:00 AM81 °FFog.7 mph84%29.62 "Hg2 mi
7:00 AM79 °FFog.7 mph89%29.62 "Hg2 mi
6:00 AM79 °FThunderstorms. Passing clouds.6 mph89%29.62 "Hg2 mi
5:00 AM81 °FPassing clouds.3 mph79%29.62 "HgN/A
4:00 AM81 °FPassing clouds.3 mph79%29.62 "Hg2 mi
12:00 AM82 °FFog.No wind74%29.65 "Hg2 mi
11:00 PM
Jul 27
82 °FFog.7 mph89%29.68 "Hg2 mi
10:00 PM84 °FFog.6 mph79%29.68 "Hg2 mi
Weather by CustomWeather, © 2014

See weather overviewHow to use our weather pages